Time,TemperatureF,DewpointF,PressureIn,WindDirection,WindDirectionDegrees,WindSpeedMPH,WindSpeedGustMPH,Humidity,HourlyPrecipIn,Conditions,Clouds,dailyrainin,SoftwareType,DateUTC
2013-01-16 00:00:00,25.0,15.2,29.26,SSW,202,7.4,7.6,66,0.00,,,0.00,VWS V14.01,2013-01-16 05:00:00,
2013-01-16 00:01:00,25.0,15.2,29.26,SSW,202,3.1,7.8,66,0.00,,,0.00,VWS V14.01,2013-01-16 05:01:00,
2013-01-16 00:03:00,25.0,15.2,29.26,South,180,9.8,10.1,66,0.00,,,0.00,VWS V14.01,2013-01-16 05:03:00,
2013-01-16 00:05:00,25.0,15.2,29.26,SSW,202,4.0,9.4,66,0.00,,,0.00,VWS V14.01,2013-01-16 05:05:00,
2013-01-16 00:10:00,25.0,15.2,29.26,SSW,202,4.0,5.8,66,0.00,,,0.00,VWS V14.01,2013-01-16 05:10:00,
2013-01-16 00:15:00,25.0,15.6,29.26,SSW,202,4.3,6.0,67,0.00,,,0.00,VWS V14.01,2013-01-16 05:15:00,
2013-01-16 00:20:00,25.2,15.8,29.26,South,180,8.5,8.5,67,0.00,,,0.00,VWS V14.01,2013-01-16 05:20:00,
2013-01-16 00:25:00,25.2,15.8,29.26,South,180,5.8,8.7,67,0.00,,,0.00,VWS V14.01,2013-01-16 05:25:00,
2013-01-16 00:30:00,25.2,15.8,29.26,SSW,202,10.5,12.3,67,0.00,,,0.00,VWS V14.01,2013-01-16 05:30:00,
2013-01-16 00:35:00,25.2,15.8,29.26,SW,225,3.1,8.5,67,0.00,,,0.00,VWS V14.01,2013-01-16 05:35:00,
2013-01-16 00:40:00,25.2,15.8,29.26,SSW,202,6.0,8.5,67,0.00,,,0.00,VWS V14.01,2013-01-16 05:40:00,
2013-01-16 00:46:00,25.2,15.8,29.26,SW,225,9.4,9.4,67,0.00,,,0.00,VWS V14.01,2013-01-16 05:46:00,
2013-01-16 00:51:00,25.0,15.9,29.26,SSW,202,4.3,6.3,68,0.00,,,0.00,VWS V14.01,2013-01-16 05:51:00,
2013-01-16 00:56:00,25.0,15.9,29.26,SW,225,10.3,10.7,68,0.00,,,0.00,VWS V14.01,2013-01-16 05:56:00,
2013-01-16 01:01:00,25.0,15.9,29.26,SSW,202,4.7,10.5,68,0.00,,,0.00,VWS V14.01,2013-01-16 06:01:00,
2013-01-16 01:06:00,24.8,16.1,29.26,WSW,248,7.8,10.1,69,0.00,,,0.00,VWS V14.01,2013-01-16 06:06:00,
2013-01-16 01:11:00,24.8,16.1,29.26,SSW,202,10.3,10.3,69,0.00,,,0.00,VWS V14.01,2013-01-16 06:11:00,
2013-01-16 01:16:00,24.6,15.9,29.26,South,180,8.7,8.7,69,0.00,,,0.00,VWS V14.01,2013-01-16 06:16:00,
2013-01-16 01:21:00,24.4,15.7,29.26,SSW,202,5.8,6.5,69,0.00,,,0.00,VWS V14.01,2013-01-16 06:21:00,
2013-01-16 01:26:00,24.4,15.7,29.23,SW,225,7.6,7.6,69,0.00,,,0.00,VWS V14.01,2013-01-16 06:26:00,
2013-01-16 01:31:00,24.4,16.1,29.23,SW,225,4.0,6.3,70,0.00,,,0.00,VWS V14.01,2013-01-16 06:31:00,
2013-01-16 01:36:00,24.3,16.2,29.20,South,180,3.8,9.6,71,0.00,,,0.00,VWS V14.01,2013-01-16 06:36:00,
2013-01-16 01:41:00,24.3,16.2,29.20,SSW,202,8.1,8.1,71,0.00,,,0.00,VWS V14.01,2013-01-16 06:41:00,
2013-01-16 01:46:00,24.3,16.5,29.20,South,180,4.0,6.3,72,0.00,,,0.00,VWS V14.01,2013-01-16 06:46:00,
2013-01-16 01:51:00,24.3,16.5,29.20,SSE,158,14.5,15.2,72,0.00,,,0.00,VWS V14.01,2013-01-16 06:51:00,
2013-01-16 01:56:00,24.3,16.5,29.20,South,180,8.5,8.5,72,0.00,,,0.00,VWS V14.01,2013-01-16 06:56:00,
2013-01-16 02:02:00,23.9,16.2,29.20,SSW,202,4.9,8.1,72,0.00,,,0.00,VWS V14.01,2013-01-16 07:02:00,
2013-01-16 02:07:00,23.7,16.0,29.20,SSW,202,4.3,7.4,72,0.00,,,0.00,VWS V14.01,2013-01-16 07:07:00,
2013-01-16 02:12:00,23.5,15.9,29.20,SSE,158,5.4,8.1,72,0.00,,,0.00,VWS V14.01,2013-01-16 07:12:00,
2013-01-16 02:17:00,23.5,16.2,29.20,South,180,3.1,4.3,73,0.00,,,0.00,VWS V14.01,2013-01-16 07:17:00,
2013-01-16 02:22:00,23.4,16.0,29.20,West,270,5.8,5.8,73,0.00,,,0.00,VWS V14.01,2013-01-16 07:22:00,
2013-01-16 02:27:00,23.0,16.0,29.20,SSE,158,7.8,7.8,74,0.00,,,0.00,VWS V14.01,2013-01-16 07:27:00,
2013-01-16 02:32:00,23.2,16.5,29.20,SSW,202,7.4,7.8,75,0.00,,,0.00,VWS V14.01,2013-01-16 07:32:00,
2013-01-16 02:37:00,23.2,16.5,29.20,SW,225,3.1,6.5,75,0.00,,,0.00,VWS V14.01,2013-01-16 07:37:00,
2013-01-16 02:42:00,23.0,16.6,29.20,SSW,202,3.4,3.6,76,0.00,,,0.00,VWS V14.01,2013-01-16 07:42:00,
2013-01-16 02:47:00,23.0,16.6,29.20,South,180,6.5,6.5,76,0.00,,,0.00,VWS V14.01,2013-01-16 07:47:00,
2013-01-16 02:52:00,23.4,16.9,29.20,SSW,202,5.6,10.1,76,0.00,,,0.00,VWS V14.01,2013-01-16 07:52:00,
2013-01-16 02:57:00,23.5,17.4,29.20,WSW,248,4.7,13.2,77,0.00,,,0.00,VWS V14.01,2013-01-16 07:57:00,
2013-01-16 03:02:00,23.5,17.4,29.20,SW,225,2.9,3.4,77,0.00,,,0.00,VWS V14.01,2013-01-16 08:02:00,
2013-01-16 03:07:00,23.9,17.8,29.17,SSE,158,8.5,8.5,77,0.00,,,0.00,VWS V14.01,2013-01-16 08:07:00,
2013-01-16 03:12:00,23.9,17.8,29.17,SSW,202,8.7,8.7,77,0.00,,,0.00,VWS V14.01,2013-01-16 08:12:00,
2013-01-16 03:17:00,24.1,17.6,29.17,SSW,202,7.6,7.6,76,0.00,,,0.00,VWS V14.01,2013-01-16 08:17:00,
2013-01-16 03:22:00,24.3,17.8,29.14,SW,225,4.9,4.9,76,0.00,,,0.00,VWS V14.01,2013-01-16 08:22:00,
2013-01-16 03:27:00,24.1,17.6,29.14,SSW,202,6.0,6.0,76,0.00,,,0.00,VWS V14.01,2013-01-16 08:27:00,
2013-01-16 03:32:00,24.3,17.8,29.14,WSW,248,6.5,6.5,76,0.00,,,0.00,VWS V14.01,2013-01-16 08:32:00,
2013-01-16 03:37:00,24.4,18.0,29.14,SSE,158,10.7,10.7,76,0.00,,,0.00,VWS V14.01,2013-01-16 08:37:00,
2013-01-16 03:42:00,24.3,17.5,29.14,SSW,202,8.5,9.8,75,0.00,,,0.00,VWS V14.01,2013-01-16 08:42:00,
2013-01-16 03:47:00,24.1,17.3,29.14,SE,135,5.4,5.8,75,0.00,,,0.00,VWS V14.01,2013-01-16 08:47:00,
2013-01-16 03:52:00,24.1,17.3,29.12,SSW,202,6.3,8.7,75,0.00,,,0.00,VWS V14.01,2013-01-16 08:52:00,
2013-01-16 03:57:00,24.1,17.3,29.12,South,180,5.8,10.7,75,0.00,,,0.00,VWS V14.01,2013-01-16 08:57:00,
2013-01-16 04:02:00,24.1,17.3,29.12,SW,225,7.4,12.3,75,0.00,,,0.00,VWS V14.01,2013-01-16 09:02:00,
2013-01-16 04:07:00,24.1,17.3,29.14,SSW,202,6.0,6.3,75,0.00,,,0.00,VWS V14.01,2013-01-16 09:07:00,
2013-01-16 04:12:00,24.1,17.3,29.14,SW,225,9.8,9.8,75,0.00,,,0.00,VWS V14.01,2013-01-16 09:12:00,
2013-01-16 04:17:00,24.1,17.3,29.14,NW,315,7.4,9.8,75,0.00,,,0.00,VWS V14.01,2013-01-16 09:17:00,
2013-01-16 04:22:00,24.3,17.5,29.14,SSW,202,16.1,16.1,75,0.00,,,0.00,VWS V14.01,2013-01-16 09:22:00,
2013-01-16 04:27:00,24.4,17.4,29.14,SW,225,4.0,9.6,74,0.00,,,0.00,VWS V14.01,2013-01-16 09:27:00,
2013-01-16 04:33:00,24.3,17.2,29.14,SSW,202,5.8,8.5,74,0.00,,,0.00,VWS V14.01,2013-01-16 09:33:00,
2013-01-16 04:38:00,24.3,17.2,29.12,SSW,202,8.7,8.7,74,0.00,,,0.00,VWS V14.01,2013-01-16 09:38:00,
2013-01-16 04:43:00,24.3,17.2,29.12,South,180,8.5,8.5,74,0.00,,,0.00,VWS V14.01,2013-01-16 09:43:00,
2013-01-16 04:48:00,24.1,16.7,29.12,SSW,202,13.2,13.2,73,0.00,,,0.00,VWS V14.01,2013-01-16 09:48:00,
2013-01-16 04:53:00,24.1,16.7,29.09,South,180,11.0,11.0,73,0.00,,,0.00,VWS V14.01,2013-01-16 09:53:00,
2013-01-16 04:58:00,23.7,16.7,29.09,SSW,202,6.9,6.9,74,0.00,,,0.00,VWS V14.01,2013-01-16 09:58:00,
2013-01-16 05:03:00,23.7,16.7,29.09,SW,225,8.7,8.7,74,0.00,,,0.00,VWS V14.01,2013-01-16 10:03:00,
2013-01-16 05:08:00,23.7,16.7,29.09,SSW,202,3.6,7.4,74,0.00,,,0.00,VWS V14.01,2013-01-16 10:08:00,
2013-01-16 05:13:00,23.5,16.5,29.09,South,180,6.0,10.3,74,0.00,,,0.00,VWS V14.01,2013-01-16 10:13:00,
2013-01-16 05:18:00,23.5,16.5,29.09,South,180,7.4,14.1,74,0.00,,,0.00,VWS V14.01,2013-01-16 10:18:00,
2013-01-16 05:23:00,23.5,16.5,29.09,SSW,202,12.8,12.8,74,0.00,,,0.00,VWS V14.01,2013-01-16 10:23:00,
2013-01-16 05:28:00,23.5,16.5,29.09,SSE,158,5.6,5.6,74,0.00,,,0.00,VWS V14.01,2013-01-16 10:28:00,
2013-01-16 05:33:00,23.5,16.5,29.09,South,180,4.0,4.0,74,0.00,,,0.00,VWS V14.01,2013-01-16 10:33:00,
2013-01-16 05:38:00,23.5,16.5,29.09,SSW,202,11.0,11.0,74,0.00,,,0.00,VWS V14.01,2013-01-16 10:38:00,
2013-01-16 05:43:00,23.5,16.5,29.09,South,180,4.3,4.3,74,0.00,,,0.00,VWS V14.01,2013-01-16 10:43:00,
2013-01-16 05:48:00,23.5,16.5,29.09,SSW,202,8.7,8.7,74,0.00,,,0.00,VWS V14.01,2013-01-16 10:48:00,
2013-01-16 05:53:00,23.7,16.7,29.09,South,180,7.6,10.3,74,0.00,,,0.00,VWS V14.01,2013-01-16 10:53:00,
2013-01-16 05:58:00,23.7,16.4,29.09,SSW,202,8.7,8.7,73,0.00,,,0.00,VWS V14.01,2013-01-16 10:58:00,
2013-01-16 06:03:00,23.5,16.2,29.09,SSW,202,7.6,7.6,73,0.00,,,0.00,VWS V14.01,2013-01-16 11:03:00,
2013-01-16 06:08:00,23.7,16.7,29.06,SSE,158,9.6,9.6,74,0.00,,,0.00,VWS V14.01,2013-01-16 11:08:00,
2013-01-16 06:13:00,23.5,16.2,29.06,SSW,202,12.8,12.8,73,0.00,,,0.00,VWS V14.01,2013-01-16 11:13:00,
2013-01-16 06:18:00,23.5,16.2,29.06,South,180,3.8,8.7,73,0.00,,,0.00,VWS V14.01,2013-01-16 11:18:00,
2013-01-16 06:23:00,23.5,16.2,29.03,South,180,6.9,6.9,73,0.00,,,0.00,VWS V14.01,2013-01-16 11:23:00,
2013-01-16 06:28:00,23.5,16.2,29.03,SSE,158,12.5,12.5,73,0.00,,,0.00,VWS V14.01,2013-01-16 11:28:00,
2013-01-16 06:33:00,23.7,16.4,29.03,SE,135,12.3,12.3,73,0.00,,,0.00,VWS V14.01,2013-01-16 11:33:00,
2013-01-16 06:38:00,23.7,16.4,29.03,SSW,202,7.6,7.6,73,0.00,,,0.00,VWS V14.01,2013-01-16 11:38:00,
2013-01-16 06:43:00,23.7,16.4,29.03,South,180,8.1,12.5,73,0.00,,,0.00,VWS V14.01,2013-01-16 11:43:00,
2013-01-16 06:49:00,23.7,16.4,29.03,SW,225,8.7,8.7,73,0.00,,,0.00,VWS V14.01,2013-01-16 11:49:00,
2013-01-16 06:54:00,23.7,16.0,29.03,South,180,7.6,10.5,72,0.00,,,0.00,VWS V14.01,2013-01-16 11:54:00,
2013-01-16 06:59:00,23.7,16.0,29.03,SSW,202,11.0,13.4,72,0.00,,,0.00,VWS V14.01,2013-01-16 11:59:00,
2013-01-16 07:04:00,23.7,16.0,29.03,SW,225,10.3,10.5,72,0.00,,,0.00,VWS V14.01,2013-01-16 12:04:00,
2013-01-16 07:09:00,23.9,16.2,29.03,SSW,202,6.9,9.8,72,0.00,,,0.00,VWS V14.01,2013-01-16 12:09:00,
2013-01-16 07:14:00,23.9,15.9,29.03,SSE,158,3.1,6.5,71,0.00,,,0.00,VWS V14.01,2013-01-16 12:14:00,
2013-01-16 07:19:00,23.9,15.9,29.03,SSW,202,10.5,11.0,71,0.00,,,0.00,VWS V14.01,2013-01-16 12:19:00,
2013-01-16 07:24:00,23.9,15.9,29.00,SW,225,4.3,8.1,71,0.00,,,0.00,VWS V14.01,2013-01-16 12:24:00,
2013-01-16 07:29:00,24.1,15.7,29.00,SSW,202,5.4,11.0,70,0.00,,,0.00,VWS V14.01,2013-01-16 12:29:00,
2013-01-16 07:34:00,23.9,15.6,29.00,South,180,6.5,14.3,70,0.00,,,0.00,VWS V14.01,2013-01-16 12:34:00,
2013-01-16 07:39:00,23.9,15.6,29.00,SSW,202,8.5,12.5,70,0.00,,,0.00,VWS V14.01,2013-01-16 12:39:00,
2013-01-16 07:44:00,23.9,15.2,29.00,WSW,248,8.1,8.1,69,0.00,,,0.00,VWS V14.01,2013-01-16 12:44:00,
2013-01-16 07:49:00,23.7,15.4,29.00,SSW,202,3.4,6.3,70,0.00,,,0.00,VWS V14.01,2013-01-16 12:49:00,
2013-01-16 07:54:00,23.9,15.6,29.00,SSW,202,8.7,8.7,70,0.00,,,0.00,VWS V14.01,2013-01-16 12:54:00,
2013-01-16 07:59:00,23.9,15.6,29.00,South,180,6.5,8.5,70,0.00,,,0.00,VWS V14.01,2013-01-16 12:59:00,
2013-01-16 08:04:00,24.1,15.7,29.00,SSW,202,6.3,6.5,70,0.00,,,0.00,VWS V14.01,2013-01-16 13:04:00,
2013-01-16 08:09:00,24.1,15.4,28.97,SSE,158,6.3,10.7,69,0.00,,,0.00,VWS V14.01,2013-01-16 13:09:00,
2013-01-16 08:14:00,24.1,15.4,28.97,SSW,202,6.7,9.4,69,0.00,,,0.00,VWS V14.01,2013-01-16 13:14:00,
2013-01-16 08:19:00,24.1,15.1,28.97,SSW,202,6.0,8.1,68,0.00,,,0.00,VWS V14.01,2013-01-16 13:19:00,
2013-01-16 08:24:00,24.1,14.7,28.97,SW,225,8.1,8.1,67,0.00,,,0.00,VWS V14.01,2013-01-16 13:24:00,
2013-01-16 08:29:00,24.1,14.7,28.97,WSW,248,7.4,8.5,67,0.00,,,0.00,VWS V14.01,2013-01-16 13:29:00,
2013-01-16 08:34:00,24.3,14.6,28.97,SSW,202,7.4,8.7,66,0.00,,,0.00,VWS V14.01,2013-01-16 13:34:00,
2013-01-16 08:39:00,24.3,14.6,28.97,SSW,202,5.4,6.5,66,0.00,,,0.00,VWS V14.01,2013-01-16 13:39:00,
2013-01-16 08:44:00,24.4,14.4,28.97,South,180,8.5,8.5,65,0.00,,,0.00,VWS V14.01,2013-01-16 13:44:00,
2013-01-16 08:49:00,24.6,14.6,28.97,SW,225,11.0,12.3,65,0.00,,,0.00,VWS V14.01,2013-01-16 13:49:00,
2013-01-16 08:54:00,24.8,14.4,28.97,SSW,202,12.5,13.2,64,0.00,,,0.00,VWS V14.01,2013-01-16 13:54:00,
2013-01-16 08:59:00,25.2,14.4,28.97,South,180,8.5,10.5,63,0.00,,,0.00,VWS V14.01,2013-01-16 13:59:00,
2013-01-16 09:04:00,25.7,14.1,28.97,South,180,17.9,17.9,61,0.00,,,0.00,VWS V14.01,2013-01-16 14:04:00,
2013-01-16 09:09:00,25.7,13.8,28.97,SSW,202,9.8,12.5,60,0.00,,,0.00,VWS V14.01,2013-01-16 14:09:00,
2013-01-16 09:14:00,25.7,13.8,28.97,SSW,202,12.3,12.3,60,0.00,,,0.00,VWS V14.01,2013-01-16 14:14:00,
2013-01-16 09:20:00,25.9,13.9,28.97,SW,225,6.3,8.1,60,0.00,,,0.00,VWS V14.01,2013-01-16 14:20:00,
2013-01-16 09:25:00,26.1,13.7,28.94,SSW,202,11.0,11.0,59,0.00,,,0.00,VWS V14.01,2013-01-16 14:25:00,
2013-01-16 09:30:00,26.2,13.9,28.94,South,180,5.8,10.7,59,0.00,,,0.00,VWS V14.01,2013-01-16 14:30:00,
2013-01-16 09:35:00,26.6,14.2,28.94,SSW,202,19.5,19.5,59,0.00,,,0.00,VWS V14.01,2013-01-16 14:35:00,
2013-01-16 09:40:00,26.6,13.8,28.94,SSW,202,12.3,12.3,58,0.00,,,0.00,VWS V14.01,2013-01-16 14:40:00,
2013-01-16 09:45:00,26.8,14.0,28.94,SSW,202,5.4,11.2,58,0.00,,,0.00,VWS V14.01,2013-01-16 14:45:00,
2013-01-16 09:50:00,27.0,13.8,28.94,South,180,10.5,15.4,57,0.00,,,0.00,VWS V14.01,2013-01-16 14:50:00,
2013-01-16 09:55:00,27.7,14.4,28.94,WSW,248,16.8,16.8,57,0.00,,,0.00,VWS V14.01,2013-01-16 14:55:00,
2013-01-16 10:00:00,28.0,14.4,28.94,WSW,248,19.5,19.5,56,0.00,,,0.00,VWS V14.01,2013-01-16 15:00:00,
2013-01-16 10:05:00,28.0,14.4,28.94,SSE,158,7.6,13.0,56,0.00,,,0.00,VWS V14.01,2013-01-16 15:05:00,
2013-01-16 10:10:00,28.2,14.6,28.91,SSW,202,22.4,22.4,56,0.00,,,0.00,VWS V14.01,2013-01-16 15:10:00,
2013-01-16 10:15:00,28.6,14.5,28.91,SW,225,15.2,15.2,55,0.00,,,0.00,VWS V14.01,2013-01-16 15:15:00,
2013-01-16 10:20:00,28.9,14.8,28.91,SSW,202,10.5,17.2,55,0.00,,,0.00,VWS V14.01,2013-01-16 15:20:00,
2013-01-16 10:25:00,29.5,15.3,28.91,SSW,202,5.6,9.6,55,0.00,,,0.00,VWS V14.01,2013-01-16 15:25:00,
2013-01-16 10:30:00,29.8,15.2,28.91,SSW,202,14.3,14.3,54,0.00,,,0.00,VWS V14.01,2013-01-16 15:30:00,
2013-01-16 10:35:00,29.7,14.6,28.91,SW,225,10.5,10.5,53,0.00,,,0.00,VWS V14.01,2013-01-16 15:35:00,
2013-01-16 10:40:00,29.7,14.6,28.91,South,180,10.7,10.7,53,0.00,,,0.00,VWS V14.01,2013-01-16 15:40:00,
2013-01-16 10:45:00,29.5,14.9,28.91,SW,225,11.4,11.4,54,0.00,,,0.00,VWS V14.01,2013-01-16 15:45:00,
2013-01-16 10:50:00,29.7,15.1,28.91,South,180,8.5,8.5,54,0.00,,,0.00,VWS V14.01,2013-01-16 15:50:00,
2013-01-16 10:55:00,29.5,15.3,28.88,SW,225,14.8,17.7,55,0.00,,,0.00,VWS V14.01,2013-01-16 15:55:00,
2013-01-16 11:00:00,29.5,15.3,28.88,SSW,202,10.5,10.5,55,0.00,,,0.00,VWS V14.01,2013-01-16 16:00:00,
2013-01-16 11:05:00,29.3,15.6,28.88,South,180,14.8,14.8,56,0.00,,,0.00,VWS V14.01,2013-01-16 16:05:00,
2013-01-16 11:10:00,29.1,16.2,28.88,SSW,202,10.1,17.2,58,0.00,,,0.00,VWS V14.01,2013-01-16 16:10:00,
2013-01-16 11:15:00,28.8,17.4,28.88,SSW,202,21.9,21.9,62,0.00,,,0.00,VWS V14.01,2013-01-16 16:15:00,
2013-01-16 11:20:00,28.6,19.0,28.88,SW,225,8.7,8.7,67,0.00,,,0.00,VWS V14.01,2013-01-16 16:20:00,
2013-01-16 11:25:00,28.2,20.0,28.88,SSW,202,14.8,14.8,71,0.00,,,0.00,VWS V14.01,2013-01-16 16:25:00,
2013-01-16 11:30:00,28.2,21.3,28.88,SSW,202,12.8,17.0,75,0.00,,,0.00,VWS V14.01,2013-01-16 16:30:00,
2013-01-16 11:35:00,28.0,22.1,28.88,WSW,248,13.9,14.8,78,0.00,,,0.00,VWS V14.01,2013-01-16 16:35:00,
2013-01-16 11:40:00,28.0,22.7,28.88,SW,225,10.5,10.5,80,0.00,,,0.00,VWS V14.01,2013-01-16 16:40:00,
2013-01-16 11:45:00,28.0,23.5,28.88,SSW,202,11.0,12.3,83,0.00,,,0.00,VWS V14.01,2013-01-16 16:45:00,
2013-01-16 11:50:00,28.0,24.4,28.88,South,180,11.9,18.8,86,0.00,,,0.00,VWS V14.01,2013-01-16 16:50:00,
2013-01-16 11:55:00,28.2,25.1,28.88,WSW,248,6.5,11.0,88,0.00,,,0.00,VWS V14.01,2013-01-16 16:55:00,
2013-01-16 12:00:00,28.4,25.6,28.88,WSW,248,13.0,13.0,89,0.00,,,0.00,VWS V14.01,2013-01-16 17:00:00,
2013-01-16 12:05:00,28.6,26.0,28.88,WNW,292,12.5,13.0,90,0.00,,,0.00,VWS V14.01,2013-01-16 17:05:00,
2013-01-16 12:10:00,28.6,26.3,28.85,WSW,248,10.1,17.0,91,0.00,,,0.00,VWS V14.01,2013-01-16 17:10:00,
2013-01-16 12:16:00,28.6,26.6,28.85,SSW,202,10.3,12.3,92,0.00,,,0.00,VWS V14.01,2013-01-16 17:16:00,
2013-01-16 12:21:00,28.6,27.1,28.85,SW,225,17.2,20.4,94,0.00,,,0.00,VWS V14.01,2013-01-16 17:21:00,
2013-01-16 12:26:00,28.6,27.3,28.85,WSW,248,10.3,14.8,95,0.00,,,0.00,VWS V14.01,2013-01-16 17:26:00,
2013-01-16 12:31:00,28.6,27.6,28.85,WSW,248,12.3,12.3,96,0.00,,,0.00,VWS V14.01,2013-01-16 17:31:00,
2013-01-16 12:36:00,28.6,27.8,28.85,SSW,202,10.7,18.8,97,0.00,,,0.00,VWS V14.01,2013-01-16 17:36:00,
2013-01-16 12:41:00,28.6,28.1,28.85,SW,225,12.5,19.5,98,0.00,,,0.00,VWS V14.01,2013-01-16 17:41:00,
2013-01-16 12:46:00,28.8,28.3,28.85,SSE,158,13.0,15.4,98,0.00,,,0.00,VWS V14.01,2013-01-16 17:46:00,
2013-01-16 12:51:00,28.9,28.5,28.85,SW,225,6.5,20.1,98,0.00,,,0.00,VWS V14.01,2013-01-16 17:51:00,
2013-01-16 12:56:00,28.9,28.5,28.85,WSW,248,12.5,23.7,98,0.00,,,0.00,VWS V14.01,2013-01-16 17:56:00,
2013-01-16 13:01:00,29.1,28.6,28.85,SSW,202,27.3,27.3,98,0.00,,,0.00,VWS V14.01,2013-01-16 18:01:00,
2013-01-16 13:06:00,29.1,28.6,28.85,WSW,248,19.5,21.3,98,0.00,,,0.00,VWS V14.01,2013-01-16 18:06:00,
2013-01-16 13:11:00,29.1,28.6,28.85,SW,225,13.0,17.7,98,0.00,,,0.00,VWS V14.01,2013-01-16 18:11:00,
2013-01-16 13:16:00,29.1,28.6,28.85,SSW,202,18.1,18.1,98,0.00,,,0.00,VWS V14.01,2013-01-16 18:16:00,
2013-01-16 13:21:00,29.1,28.6,28.85,WSW,248,17.5,19.9,98,0.00,,,0.00,VWS V14.01,2013-01-16 18:21:00,
2013-01-16 13:26:00,29.1,28.6,28.85,SW,225,15.2,22.8,98,0.00,,,0.00,VWS V14.01,2013-01-16 18:26:00,
2013-01-16 13:31:00,29.1,28.6,28.85,SW,225,14.5,14.5,98,0.00,,,0.00,VWS V14.01,2013-01-16 18:31:00,
2013-01-16 13:36:00,29.1,28.6,28.85,WSW,248,10.3,10.3,98,0.00,,,0.00,VWS V14.01,2013-01-16 18:36:00,
2013-01-16 13:41:00,28.9,28.5,28.85,SSW,202,12.5,12.5,98,0.00,,,0.00,VWS V14.01,2013-01-16 18:41:00,
2013-01-16 13:46:00,29.1,28.6,28.85,WSW,248,12.8,12.8,98,0.00,,,0.00,VWS V14.01,2013-01-16 18:46:00,
2013-01-16 13:51:00,28.9,28.5,28.85,WSW,248,20.1,20.1,98,0.00,,,0.00,VWS V14.01,2013-01-16 18:51:00,
2013-01-16 13:56:00,28.9,28.5,28.85,WSW,248,17.7,17.7,98,0.00,,,0.00,VWS V14.01,2013-01-16 18:56:00,
2013-01-16 14:01:00,29.1,28.6,28.85,WSW,248,13.4,17.0,98,0.00,,,0.00,VWS V14.01,2013-01-16 19:01:00,
2013-01-16 14:06:00,28.9,27.9,28.88,WSW,248,20.8,20.8,96,0.00,,,0.00,VWS V14.01,2013-01-16 19:06:00,
2013-01-16 14:11:00,28.9,27.4,28.88,WSW,248,13.2,19.7,94,0.00,,,0.00,VWS V14.01,2013-01-16 19:11:00,
2013-01-16 14:16:00,28.6,26.0,28.88,WSW,248,15.4,17.5,90,0.00,,,0.00,VWS V14.01,2013-01-16 19:16:00,
2013-01-16 14:21:00,28.6,25.8,28.88,WSW,248,13.2,17.5,89,0.00,,,0.00,VWS V14.01,2013-01-16 19:21:00,
2013-01-16 14:26:00,28.6,25.8,28.88,WSW,248,11.4,19.2,89,0.00,,,0.00,VWS V14.01,2013-01-16 19:26:00,
2013-01-16 14:31:00,28.6,25.5,28.88,WSW,248,11.0,18.6,88,0.00,,,0.00,VWS V14.01,2013-01-16 19:31:00,
2013-01-16 14:36:00,28.6,25.2,28.88,WSW,248,17.7,19.7,87,0.00,,,0.00,VWS V14.01,2013-01-16 19:36:00,
2013-01-16 14:41:00,28.6,24.4,28.88,WSW,248,10.3,12.8,84,0.00,,,0.00,VWS V14.01,2013-01-16 19:41:00,
2013-01-16 14:46:00,28.8,24.5,28.88,WSW,248,12.3,17.0,84,0.00,,,0.00,VWS V14.01,2013-01-16 19:46:00,
2013-01-16 14:51:00,28.9,24.4,28.88,WSW,248,13.2,13.2,83,0.00,,,0.00,VWS V14.01,2013-01-16 19:51:00,
2013-01-16 14:56:00,28.9,23.3,28.88,SW,225,12.5,15.4,79,0.00,,,0.00,VWS V14.01,2013-01-16 19:56:00,
2013-01-16 15:02:00,29.1,23.1,28.88,WSW,248,10.7,17.9,78,0.00,,,0.00,VWS V14.01,2013-01-16 20:02:00,
2013-01-16 15:07:00,29.1,22.8,28.88,WNW,292,15.2,15.2,77,0.00,,,0.00,VWS V14.01,2013-01-16 20:07:00,
2013-01-16 15:12:00,29.1,22.2,28.88,West,270,13.2,19.0,75,0.00,,,0.00,VWS V14.01,2013-01-16 20:12:00,
2013-01-16 15:17:00,29.1,22.2,28.88,WSW,248,12.3,12.3,75,0.00,,,0.00,VWS V14.01,2013-01-16 20:17:00,
2013-01-16 15:22:00,29.3,22.1,28.88,West,270,14.3,14.3,74,0.00,,,0.00,VWS V14.01,2013-01-16 20:22:00,
2013-01-16 15:27:00,29.3,21.7,28.88,WSW,248,10.7,16.8,73,0.00,,,0.00,VWS V14.01,2013-01-16 20:27:00,
2013-01-16 15:32:00,29.5,21.6,28.88,West,270,16.8,16.8,72,0.00,,,0.00,VWS V14.01,2013-01-16 20:32:00,
2013-01-16 15:37:00,29.5,21.6,28.91,WSW,248,8.7,14.3,72,0.00,,,0.00,VWS V14.01,2013-01-16 20:37:00,
2013-01-16 15:42:00,29.5,21.6,28.91,WSW,248,12.8,14.8,72,0.00,,,0.00,VWS V14.01,2013-01-16 20:42:00,
2013-01-16 15:47:00,29.7,21.8,28.91,SW,225,11.0,11.0,72,0.00,,,0.00,VWS V14.01,2013-01-16 20:47:00,
2013-01-16 15:52:00,29.8,21.6,28.91,WSW,248,12.5,22.4,71,0.00,,,0.00,VWS V14.01,2013-01-16 20:52:00,
2013-01-16 15:57:00,30.0,21.4,28.91,SW,225,12.8,13.2,70,0.00,,,0.00,VWS V14.01,2013-01-16 20:57:00,
2013-01-16 16:02:00,30.2,21.9,28.91,WNW,292,14.5,16.1,71,0.00,,,0.00,VWS V14.01,2013-01-16 21:02:00,
2013-01-16 16:07:00,30.2,21.9,28.91,WSW,248,18.1,18.1,71,0.00,,,0.00,VWS V14.01,2013-01-16 21:07:00,
2013-01-16 16:12:00,30.2,21.9,28.91,WSW,248,10.5,10.5,71,0.00,,,0.00,VWS V14.01,2013-01-16 21:12:00,
2013-01-16 16:17:00,30.2,22.3,28.91,West,270,11.0,11.0,72,0.00,,,0.00,VWS V14.01,2013-01-16 21:17:00,
2013-01-16 16:22:00,30.2,22.3,28.91,West,270,12.3,12.3,72,0.00,,,0.00,VWS V14.01,2013-01-16 21:22:00,
2013-01-16 16:27:00,30.4,21.1,28.91,WSW,248,16.6,23.0,68,0.00,,,0.00,VWS V14.01,2013-01-16 21:27:00,
2013-01-16 16:32:00,30.4,21.1,28.91,WSW,248,17.5,17.5,68,0.00,,,0.00,VWS V14.01,2013-01-16 21:32:00,
2013-01-16 16:37:00,30.4,21.8,28.91,WSW,248,15.4,15.4,70,0.00,,,0.00,VWS V14.01,2013-01-16 21:37:00,
2013-01-16 16:42:00,30.2,21.9,28.91,WSW,248,15.9,17.7,71,0.00,,,0.00,VWS V14.01,2013-01-16 21:42:00,
2013-01-16 16:47:00,30.2,22.9,28.91,West,270,5.8,16.1,74,0.00,,,0.00,VWS V14.01,2013-01-16 21:47:00,
2013-01-16 16:52:00,30.0,22.8,28.94,West,270,11.4,11.4,74,0.00,,,0.00,VWS V14.01,2013-01-16 21:52:00,
2013-01-16 16:57:00,30.0,23.1,28.94,WSW,248,19.0,19.0,75,0.00,,,0.00,VWS V14.01,2013-01-16 21:57:00,
2013-01-16 17:02:00,30.2,22.9,28.94,SW,225,17.5,17.5,74,0.00,,,0.00,VWS V14.01,2013-01-16 22:02:00,
2013-01-16 17:07:00,30.2,22.6,28.94,WSW,248,17.0,22.4,73,0.00,,,0.00,VWS V14.01,2013-01-16 22:07:00,
2013-01-16 17:12:00,30.2,22.3,28.94,WSW,248,12.1,14.8,72,0.00,,,0.00,VWS V14.01,2013-01-16 22:12:00,
2013-01-16 17:17:00,30.2,22.3,28.94,SW,225,10.7,16.1,72,0.00,,,0.00,VWS V14.01,2013-01-16 22:17:00,
2013-01-16 17:22:00,30.2,21.3,28.97,WSW,248,14.8,14.8,69,0.00,,,0.00,VWS V14.01,2013-01-16 22:22:00,
2013-01-16 17:28:00,30.4,21.4,28.97,SW,225,10.3,11.9,69,0.00,,,0.00,VWS V14.01,2013-01-16 22:28:00,
2013-01-16 17:33:00,30.4,21.1,28.97,WSW,248,10.7,17.2,68,0.00,,,0.00,VWS V14.01,2013-01-16 22:33:00,
2013-01-16 17:38:00,30.6,20.2,29.00,WSW,248,12.3,19.7,65,0.00,,,0.00,VWS V14.01,2013-01-16 22:38:00,
2013-01-16 17:43:00,30.7,20.0,29.00,West,270,17.2,18.1,64,0.00,,,0.00,VWS V14.01,2013-01-16 22:43:00,
2013-01-16 17:48:00,30.7,20.0,29.00,West,270,11.0,17.2,64,0.00,,,0.00,VWS V14.01,2013-01-16 22:48:00,
2013-01-16 17:53:00,30.7,19.3,28.94,WNW,292,11.0,20.6,62,0.00,,,0.00,VWS V14.01,2013-01-16 22:53:00,
2013-01-16 17:58:00,30.9,19.5,28.94,WSW,248,8.1,14.5,62,0.00,,,0.00,VWS V14.01,2013-01-16 22:58:00,
2013-01-16 18:03:00,30.9,20.2,28.94,WSW,248,12.3,15.2,64,0.00,,,0.00,VWS V14.01,2013-01-16 23:03:00,
2013-01-16 18:08:00,31.1,20.7,28.97,WSW,248,13.0,16.3,65,0.00,,,0.00,VWS V14.01,2013-01-16 23:08:00,
2013-01-16 18:13:00,31.1,20.4,28.97,WSW,248,8.5,8.5,64,0.00,,,0.00,VWS V14.01,2013-01-16 23:13:00,
2013-01-16 18:18:00,31.1,21.1,28.97,WSW,248,10.7,15.4,66,0.00,,,0.00,VWS V14.01,2013-01-16 23:18:00,
2013-01-16 18:23:00,30.7,22.1,28.97,West,270,13.9,13.9,70,0.00,,,0.00,VWS V14.01,2013-01-16 23:23:00,
2013-01-16 18:28:00,30.6,22.3,28.97,WSW,248,9.8,9.8,71,0.00,,,0.00,VWS V14.01,2013-01-16 23:28:00,
2013-01-16 18:33:00,30.2,24.2,28.97,WSW,248,9.8,10.1,78,0.00,,,0.00,VWS V14.01,2013-01-16 23:33:00,
2013-01-16 18:38:00,30.0,25.2,29.00,WSW,248,12.1,12.1,82,0.00,,,0.00,VWS V14.01,2013-01-16 23:38:00,
2013-01-16 18:43:00,30.0,25.5,29.00,WSW,248,15.4,16.3,83,0.00,,,0.00,VWS V14.01,2013-01-16 23:43:00,
2013-01-16 18:48:00,30.0,25.8,29.00,WNW,292,17.2,17.2,84,0.00,,,0.00,VWS V14.01,2013-01-16 23:48:00,
2013-01-16 18:53:00,30.0,26.4,29.00,WSW,248,11.0,11.0,86,0.00,,,0.00,VWS V14.01,2013-01-16 23:53:00,
2013-01-16 18:58:00,29.8,26.7,29.00,WSW,248,13.2,13.2,88,0.00,,,0.00,VWS V14.01,2013-01-16 23:58:00,
2013-01-16 19:03:00,29.7,27.1,29.00,West,270,14.3,14.3,90,0.00,,,0.00,VWS V14.01,2013-01-17 00:03:00,
2013-01-16 19:08:00,29.8,28.1,29.00,WSW,248,15.9,15.9,93,0.00,,,0.00,VWS V14.01,2013-01-17 00:08:00,
2013-01-16 19:13:00,29.7,28.1,29.00,West,270,6.5,7.6,94,0.00,,,0.00,VWS V14.01,2013-01-17 00:13:00,
2013-01-16 19:18:00,29.1,27.6,29.00,WNW,292,6.3,8.7,94,0.00,,,0.00,VWS V14.01,2013-01-17 00:18:00,
2013-01-16 19:23:00,28.9,27.7,29.03,West,270,3.8,4.3,95,0.00,,,0.00,VWS V14.01,2013-01-17 00:23:00,
2013-01-16 19:28:00,28.6,27.3,29.03,ENE,68,6.9,6.9,95,0.00,,,0.00,VWS V14.01,2013-01-17 00:28:00,
2013-01-16 19:33:00,28.0,26.5,29.03,NNW,338,5.4,5.4,94,0.00,,,0.00,VWS V14.01,2013-01-17 00:33:00,
2013-01-16 19:38:00,27.9,26.4,29.03,NNW,338,4.9,4.9,94,0.00,,,0.00,VWS V14.01,2013-01-17 00:38:00,
2013-01-16 19:43:00,27.5,25.8,29.03,WNW,292,9.0,9.0,93,0.00,,,0.00,VWS V14.01,2013-01-17 00:43:00,
2013-01-16 19:49:00,27.1,25.4,29.03,NNW,338,13.0,13.0,93,0.00,,,0.00,VWS V14.01,2013-01-17 00:49:00,
2013-01-16 19:54:00,27.0,25.0,29.00,NNW,338,5.6,14.3,92,0.00,,,0.00,VWS V14.01,2013-01-17 00:54:00,
2013-01-16 19:59:00,26.8,24.5,29.00,WNW,292,6.3,6.3,91,0.00,,,0.00,VWS V14.01,2013-01-17 00:59:00,
2013-01-16 20:04:00,26.4,24.1,29.00,NNW,338,5.6,6.0,91,0.00,,,0.00,VWS V14.01,2013-01-17 01:04:00,
2013-01-16 20:09:00,26.2,24.0,29.03,WNW,292,6.0,7.2,91,0.00,,,0.00,VWS V14.01,2013-01-17 01:09:00,
2013-01-16 20:14:00,25.9,22.5,29.03,West,270,9.4,10.7,87,0.00,,,0.00,VWS V14.01,2013-01-17 01:14:00,
2013-01-16 20:19:00,26.1,20.8,29.03,ENE,68,10.5,10.5,80,0.00,,,0.00,VWS V14.01,2013-01-17 01:19:00,
2013-01-16 20:24:00,26.4,16.6,29.06,WNW,292,7.4,9.8,66,0.00,,,0.00,VWS V14.01,2013-01-17 01:24:00,
2013-01-16 20:29:00,26.6,15.7,29.06,SE,135,5.4,8.7,63,0.00,,,0.00,VWS V14.01,2013-01-17 01:29:00,
2013-01-16 20:34:00,26.8,12.0,29.06,NW,315,9.8,9.8,53,0.00,,,0.00,VWS V14.01,2013-01-17 01:34:00,
2013-01-16 20:39:00,26.8,12.0,29.09,NNW,338,9.4,11.2,53,0.00,,,0.00,VWS V14.01,2013-01-17 01:39:00,
2013-01-16 20:44:00,26.8,12.8,29.09,NNW,338,3.4,4.7,55,0.00,,,0.00,VWS V14.01,2013-01-17 01:44:00,
2013-01-16 20:49:00,27.0,13.0,29.09,NW,315,3.6,3.6,55,0.00,,,0.00,VWS V14.01,2013-01-17 01:49:00,
2013-01-16 20:54:00,26.8,14.8,29.09,North,0,7.8,7.8,60,0.00,,,0.00,VWS V14.01,2013-01-17 01:54:00,
2013-01-16 20:59:00,26.1,16.6,29.09,NNW,338,3.8,3.8,67,0.00,,,0.00,VWS V14.01,2013-01-17 01:59:00,
2013-01-16 21:04:00,25.9,15.8,29.09,WNW,292,5.6,6.5,65,0.00,,,0.00,VWS V14.01,2013-01-17 02:04:00,
2013-01-16 21:09:00,25.7,15.2,29.09,WNW,292,2.9,2.9,64,0.00,,,0.00,VWS V14.01,2013-01-17 02:09:00,
2013-01-16 21:14:00,25.3,14.5,29.09,WNW,292,7.8,9.0,63,0.00,,,0.00,VWS V14.01,2013-01-17 02:14:00,
2013-01-16 21:19:00,25.2,14.0,29.09,NNW,338,3.1,4.9,62,0.00,,,0.00,VWS V14.01,2013-01-17 02:19:00,
2013-01-16 21:24:00,25.0,13.1,29.09,WNW,292,3.8,5.6,60,0.00,,,0.00,VWS V14.01,2013-01-17 02:24:00,
2013-01-16 21:29:00,25.0,12.7,29.09,WNW,292,6.9,6.9,59,0.00,,,0.00,VWS V14.01,2013-01-17 02:29:00,
2013-01-16 21:34:00,24.8,12.9,29.09,NNW,338,6.3,6.3,60,0.00,,,0.00,VWS V14.01,2013-01-17 02:34:00,
2013-01-16 21:39:00,24.8,12.9,29.12,North,0,5.4,5.6,60,0.00,,,0.00,VWS V14.01,2013-01-17 02:39:00,
2013-01-16 21:44:00,24.8,12.5,29.12,WNW,292,4.9,5.6,59,0.00,,,0.00,VWS V14.01,2013-01-17 02:44:00,
2013-01-16 21:49:00,24.6,11.6,29.12,WSW,248,5.4,6.9,57,0.00,,,0.00,VWS V14.01,2013-01-17 02:49:00,
2013-01-16 21:54:00,24.6,12.4,29.12,WNW,292,5.6,6.5,59,0.00,,,0.00,VWS V14.01,2013-01-17 02:54:00,
2013-01-16 21:59:00,24.4,12.2,29.12,NNW,338,4.9,8.5,59,0.00,,,0.00,VWS V14.01,2013-01-17 02:59:00,
2013-01-16 22:05:00,24.4,12.6,29.12,WNW,292,5.4,6.7,60,0.00,,,0.00,VWS V14.01,2013-01-17 03:05:00,
2013-01-16 22:10:00,24.1,11.8,29.14,WNW,292,9.4,12.5,59,0.00,,,0.00,VWS V14.01,2013-01-17 03:10:00,
2013-01-16 22:15:00,23.7,10.7,29.14,NW,315,4.3,7.2,57,0.00,,,0.00,VWS V14.01,2013-01-17 03:15:00,
2013-01-16 22:20:00,23.7,10.7,29.14,West,270,3.1,9.6,57,0.00,,,0.00,VWS V14.01,2013-01-17 03:20:00,
2013-01-16 22:25:00,23.7,11.1,29.14,NNW,338,4.9,14.3,58,0.00,,,0.00,VWS V14.01,2013-01-17 03:25:00,
2013-01-16 22:30:00,24.1,10.7,29.14,WNW,292,4.3,7.2,56,0.00,,,0.00,VWS V14.01,2013-01-17 03:30:00,
2013-01-16 22:35:00,24.1,10.7,29.14,NW,315,6.5,6.5,56,0.00,,,0.00,VWS V14.01,2013-01-17 03:35:00,
2013-01-16 22:40:00,23.7,8.2,29.14,WNW,292,5.8,6.5,51,0.00,,,0.00,VWS V14.01,2013-01-17 03:40:00,
2013-01-16 22:45:00,23.7,8.7,29.14,NNW,338,7.8,13.0,52,0.00,,,0.00,VWS V14.01,2013-01-17 03:45:00,
2013-01-16 22:50:00,23.5,9.4,29.14,WNW,292,9.8,9.8,54,0.00,,,0.00,VWS V14.01,2013-01-17 03:50:00,
2013-01-16 22:55:00,23.4,8.8,29.14,North,0,9.6,13.4,53,0.00,,,0.00,VWS V14.01,2013-01-17 03:55:00,
2013-01-16 23:00:00,23.2,8.6,29.14,NNE,22,5.4,5.4,53,0.00,,,0.00,VWS V14.01,2013-01-17 04:00:00,
2013-01-16 23:05:00,23.0,8.9,29.14,NW,315,3.1,4.3,54,0.00,,,0.00,VWS V14.01,2013-01-17 04:05:00,
2013-01-16 23:10:00,23.0,9.7,29.17,WNW,292,5.4,5.4,56,0.00,,,0.00,VWS V14.01,2013-01-17 04:10:00,
2013-01-16 23:15:00,23.2,11.0,29.17,WNW,292,4.7,4.7,59,0.00,,,0.00,VWS V14.01,2013-01-17 04:15:00,
2013-01-16 23:20:00,23.0,12.3,29.17,NNW,338,7.6,7.6,63,0.00,,,0.00,VWS V14.01,2013-01-17 04:20:00,
2013-01-16 23:25:00,23.0,12.3,29.17,NNW,338,5.8,5.8,63,0.00,,,0.00,VWS V14.01,2013-01-17 04:25:00,
2013-01-16 23:30:00,22.8,11.4,29.17,WSW,248,5.6,13.2,61,0.00,,,0.00,VWS V14.01,2013-01-17 04:30:00,
2013-01-16 23:35:00,22.8,11.4,29.17,West,270,5.4,5.4,61,0.00,,,0.00,VWS V14.01,2013-01-17 04:35:00,
2013-01-16 23:40:00,22.5,11.8,29.20,NNW,338,6.5,6.5,63,0.00,,,0.00,VWS V14.01,2013-01-17 04:40:00,
2013-01-16 23:45:00,22.3,11.6,29.20,WNW,292,9.6,9.6,63,0.00,,,0.00,VWS V14.01,2013-01-17 04:45:00,
2013-01-16 23:50:00,22.1,11.1,29.20,NNW,338,3.8,7.6,62,0.00,,,0.00,VWS V14.01,2013-01-17 04:50:00,
2013-01-16 23:55:00,22.1,11.4,29.20,WNW,292,4.9,4.9,63,0.00,,,0.00,VWS V14.01,2013-01-17 04:55:00,